owner,sensor,date,latitude,longitude,vertical_datum,wind_speed,wind_to_direction,wind_speed_of_gust,qcFlag 
TCOON,ioos:station:TCOON:524:1,2017-04-01T00:00:00Z,29.8672,-93.9310,0.0,3.1,138.0,4.7,'11111222,11111222,11111222' 
TCOON,ioos:station:TCOON:524:1,2017-04-01T00:06:00Z,29.8672,-93.9310,0.0,3.1,143.0,4.1,'11111222,11111222,11111222' 
TCOON,ioos:station:TCOON:524:1,2017-04-01T00:12:00Z,29.8672,-93.9310,0.0,2.6,140.0,4.1,'11111222,11111222,11111222' 
TCOON,ioos:station:TCOON:524:1,2017-04-01T00:18:00Z,29.8672,-93.9310,0.0,2.6,140.0,4.1,'1111122,1111122,1111122' 
TCOON,ioos:station:TCOON:524:1,2017-04-01T00:24:00Z,29.8672,-93.9310,0.0,3.0,138.0,4.8,'11111222,11111222,11111222' 
TCOON,ioos:station:TCOON:524:1,2017-04-01T00:30:00Z,29.8672,-93.9310,0.0,3.4,141.0,5.0,'11111222,11111222,11111222' 
TCOON,ioos:station:TCOON:524:1,2017-04-01T00:36:00Z,29.8672,-93.9310,0.0,3.4,135.0,4.8,'11111222,11111222,11111222' 
TCOON,ioos:station:TCOON:524:1,2017-04-01T00:42:00Z,29.8672,-93.9310,0.0,3.8,148.0,4.6,'11111222,11111222,11111222' 
TCOON,ioos:station:TCOON:524:1,2017-04-01T00:48:00Z,29.8672,-93.9310,0.0,3.8,141.0,5.3,'11111222,11111222,11111222' 
TCOON,ioos:station:TCOON:524:1,2017-04-01T00:54:00Z,29.8672,-93.9310,0.0,3.8,146.0,5.6,'11111222,11111222,11111222' 
TCOON,ioos:station:TCOON:524:1,2017-04-01T01:00:00Z,29.8672,-93.9310,0.0,3.5,144.0,5.2,'11111222,11111222,11111222' 
TCOON,ioos:station:TCOON:524:1,2017-04-01T01:06:00Z,29.8672,-93.9310,0.0,3.7,140.0,5.6,'11111222,11111222,11111222' 
TCOON,ioos:station:TCOON:524:1,2017-04-01T01:12:00Z,29.8672,-93.9310,0.0,3.6,144.0,5.5,'11111222,11111222,11111222' 
TCOON,ioos:station:TCOON:524:1,2017-04-01T01:18:00Z,29.8672,-93.9310,0.0,3.9,142.0,6.0,'11111222,11111222,11111222' 
TCOON,ioos:station:TCOON:524:1,2017-04-01T01:24:00Z,29.8672,-93.9310,0.0,3.9,142.0,6.0,'1111122,1111122,1111122' 
TCOON,ioos:station:TCOON:524:1,2017-04-01T01:30:00Z,29.8672,-93.9310,0.0,3.1,141.0,5.4,'11111222,11111222,11111222' 
TCOON,ioos:station:TCOON:524:1,2017-04-01T01:36:00Z,29.8672,-93.9310,0.0,3.6,145.0,5.7,'11111222,11111222,11111222' 
TCOON,ioos:station:TCOON:524:1,2017-04-01T01:42:00Z,29.8672,-93.9310,0.0,3.3,140.0,5.7,'11111222,11111222,11111222' 
TCOON,ioos:station:TCOON:524:1,2017-04-01T01:48:00Z,29.8672,-93.9310,0.0,3.0,136.0,5.0,'11111222,11111222,11111222' 
TCOON,ioos:station:TCOON:524:1,2017-04-01T01:54:00Z,29.8672,-93.9310,0.0,3.7,136.0,5.4,'11111222,11111222,11111222' 
TCOON,ioos:station:TCOON:524:1,2017-04-01T02:00:00Z,29.8672,-93.9310,0.0,3.6,136.0,5.3,'11111222,11111222,11111222' 
TCOON,ioos:station:TCOON:524:1,2017-04-01T02:06:00Z,29.8672,-93.9310,0.0,3.4,139.0,4.9,'11111222,11111222,11111222' 
TCOON,ioos:station:TCOON:524:1,2017-04-01T02:12:00Z,29.8672,-93.9310,0.0,2.7,134.0,5.2,'11111222,11111222,11111222' 
TCOON,ioos:station:TCOON:524:1,2017-04-01T02:18:00Z,29.8672,-93.9310,0.0,2.7,134.0,5.2,'1111122,1111122,1111122' 
TCOON,ioos:station:TCOON:524:1,2017-04-01T02:24:00Z,29.8672,-93.9310,0.0,2.9,137.0,5.5,'11111222,11111222,11111222' 
TCOON,ioos:station:TCOON:524:1,2017-04-01T02:30:00Z,29.8672,-93.9310,0.0,3.8,133.0,5.4,'11111222,11111222,11111222' 
TCOON,ioos:station:TCOON:524:1,2017-04-01T02:36:00Z,29.8672,-93.9310,0.0,3.0,133.0,4.7,'11111222,11111222,11111222' 
TCOON,ioos:station:TCOON:524:1,2017-04-01T02:42:00Z,29.8672,-93.9310,0.0,3.6,132.0,5.3,'11111222,11111222,11111222' 
TCOON,ioos:station:TCOON:524:1,2017-04-01T02:48:00Z,29.8672,-93.9310,0.0,2.8,132.0,5.6,'11111222,11111222,11111222' 
TCOON,ioos:station:TCOON:524:1,2017-04-01T02:54:00Z,29.8672,-93.9310,0.0,3.7,133.0,5.1,'11111222,11111222,11111222' 
TCOON,ioos:station:TCOON:524:1,2017-04-01T03:00:00Z,29.8672,-93.9310,0.0,3.6,132.0,5.2,'11111222,11111222,11111222' 
TCOON,ioos:station:TCOON:524:1,2017-04-01T03:06:00Z,29.8672,-93.9310,0.0,3.0,131.0,4.7,'11111222,11111222,11111222' 
TCOON,ioos:station:TCOON:524:1,2017-04-01T03:12:00Z,29.8672,-93.9310,0.0,3.2,132.0,5.1,'11111222,11111222,11111222' 
TCOON,ioos:station:TCOON:524:1,2017-04-01T03:18:00Z,29.8672,-93.9310,0.0,3.2,132.0,5.1,'1111122,1111122,1111122' 
TCOON,ioos:station:TCOON:524:1,2017-04-01T03:24:00Z,29.8672,-93.9310,0.0,3.4,133.0,5.3,'11111222,11111222,11111222' 
TCOON,ioos:station:TCOON:524:1,2017-04-01T03:30:00Z,29.8672,-93.9310,0.0,3.0,137.0,5.4,'11111222,11111222,11111222' 
TCOON,ioos:station:TCOON:524:1,2017-04-01T03:36:00Z,29.8672,-93.9310,0.0,4.1,139.0,5.7,'11111222,11111222,11111222' 
TCOON,ioos:station:TCOON:524:1,2017-04-01T03:42:00Z,29.8672,-93.9310,0.0,3.6,141.0,5.5,'11111222,11111222,11111222' 
TCOON,ioos:station:TCOON:524:1,2017-04-01T03:48:00Z,29.8672,-93.9310,0.0,4.3,139.0,5.7,'11111222,11111222,11111222' 
TCOON,ioos:station:TCOON:524:1,2017-04-01T03:54:00Z,29.8672,-93.9310,0.0,4.3,145.0,6.3,'11111222,11111222,11111222' 
TCOON,ioos:station:TCOON:524:1,2017-04-01T04:00:00Z,29.8672,-93.9310,0.0,3.7,144.0,5.6,'11111222,11111222,11111222' 
TCOON,ioos:station:TCOON:524:1,2017-04-01T04:06:00Z,29.8672,-93.9310,0.0,4.1,144.0,5.9,'11111222,11111222,11111222' 
TCOON,ioos:station:TCOON:524:1,2017-04-01T04:12:00Z,29.8672,-93.9310,0.0,3.4,138.0,5.5,'11111222,11111222,11111222' 
TCOON,ioos:station:TCOON:524:1,2017-04-01T04:18:00Z,29.8672,-93.9310,0.0,3.4,138.0,5.5,'1111122,1111122,1111122' 
TCOON,ioos:station:TCOON:524:1,2017-04-01T04:24:00Z,29.8672,-93.9310,0.0,3.4,141.0,5.0,'11111222,11111222,11111222' 
TCOON,ioos:station:TCOON:524:1,2017-04-01T04:30:00Z,29.8672,-93.9310,0.0,3.3,140.0,5.2,'11111222,11111222,11111222' 
TCOON,ioos:station:TCOON:524:1,2017-04-01T04:36:00Z,29.8672,-93.9310,0.0,3.8,138.0,5.8,'11111222,11111222,11111222' 
TCOON,ioos:station:TCOON:524:1,2017-04-01T04:42:00Z,29.8672,-93.9310,0.0,3.8,139.0,5.8,'11111222,11111222,11111222' 
TCOON,ioos:station:TCOON:524:1,2017-04-01T04:48:00Z,29.8672,-93.9310,0.0,3.7,140.0,6.9,'11111222,11111222,11111222' 
TCOON,ioos:station:TCOON:524:1,2017-04-01T04:54:00Z,29.8672,-93.9310,0.0,3.8,137.0,6.6,'11111222,11111222,11111222' 
TCOON,ioos:station:TCOON:524:1,2017-04-01T05:00:00Z,29.8672,-93.9310,0.0,3.8,139.0,7.0,'11111222,11111222,11111222' 
TCOON,ioos:station:TCOON:524:1,2017-04-01T05:06:00Z,29.8672,-93.9310,0.0,3.4,137.0,6.3,'11111222,11111222,11111222' 
TCOON,ioos:station:TCOON:524:1,2017-04-01T05:12:00Z,29.8672,-93.9310,0.0,4.3,139.0,6.4,'11111222,11111222,11111222' 
TCOON,ioos:station:TCOON:524:1,2017-04-01T05:18:00Z,29.8672,-93.9310,0.0,4.3,139.0,6.4,'1111122,1111122,1111122' 
TCOON,ioos:station:TCOON:524:1,2017-04-01T05:24:00Z,29.8672,-93.9310,0.0,3.3,136.0,5.3,'11111222,11111222,11111222' 
TCOON,ioos:station:TCOON:524:1,2017-04-01T05:30:00Z,29.8672,-93.9310,0.0,4.0,142.0,6.6,'11111222,11111222,11111222' 
TCOON,ioos:station:TCOON:524:1,2017-04-01T05:36:00Z,29.8672,-93.9310,0.0,4.1,147.0,6.2,'11111222,11111222,11111222' 
TCOON,ioos:station:TCOON:524:1,2017-04-01T05:42:00Z,29.8672,-93.9310,0.0,4.5,146.0,6.1,'11111222,11111222,11111222' 
TCOON,ioos:station:TCOON:524:1,2017-04-01T05:48:00Z,29.8672,-93.9310,0.0,3.3,149.0,5.2,'11111222,11111222,11111222' 
TCOON,ioos:station:TCOON:524:1,2017-04-01T05:54:00Z,29.8672,-93.9310,0.0,3.5,148.0,4.7,'11111222,11111222,11111222' 
TCOON,ioos:station:TCOON:524:1,2017-04-01T06:00:00Z,29.8672,-93.9310,0.0,3.2,141.0,4.9,'11111222,11111222,11111222' 
TCOON,ioos:station:TCOON:524:1,2017-04-01T06:06:00Z,29.8672,-93.9310,0.0,4.5,146.0,6.0,'11111222,11111222,11111222' 
TCOON,ioos:station:TCOON:524:1,2017-04-01T06:12:00Z,29.8672,-93.9310,0.0,4.1,144.0,6.2,'11111222,11111222,11111222' 
TCOON,ioos:station:TCOON:524:1,2017-04-01T06:18:00Z,29.8672,-93.9310,0.0,4.1,144.0,6.2,'1111122,1111122,1111122' 
TCOON,ioos:station:TCOON:524:1,2017-04-01T06:24:00Z,29.8672,-93.9310,0.0,4.2,146.0,6.2,'11111222,11111222,11111222' 
TCOON,ioos:station:TCOON:524:1,2017-04-01T06:30:00Z,29.8672,-93.9310,0.0,3.7,145.0,5.5,'11111222,11111222,11111222' 
TCOON,ioos:station:TCOON:524:1,2017-04-01T06:36:00Z,29.8672,-93.9310,0.0,4.2,143.0,6.0,'11111222,11111222,11111222' 
TCOON,ioos:station:TCOON:524:1,2017-04-01T06:42:00Z,29.8672,-93.9310,0.0,3.8,143.0,7.3,'11111222,11111222,11111222' 
TCOON,ioos:station:TCOON:524:1,2017-04-01T06:48:00Z,29.8672,-93.9310,0.0,3.7,142.0,6.2,'11111222,11111222,11111222' 
TCOON,ioos:station:TCOON:524:1,2017-04-01T06:54:00Z,29.8672,-93.9310,0.0,4.8,147.0,6.0,'11111222,11111222,11111222' 
TCOON,ioos:station:TCOON:524:1,2017-04-01T07:00:00Z,29.8672,-93.9310,0.0,4.8,142.0,6.5,'11111222,11111222,11111222' 
TCOON,ioos:station:TCOON:524:1,2017-04-01T07:06:00Z,29.8672,-93.9310,0.0,3.8,143.0,5.8,'11111222,11111222,11111222' 
TCOON,ioos:station:TCOON:524:1,2017-04-01T07:12:00Z,29.8672,-93.9310,0.0,3.3,136.0,6.1,'11111222,11111222,11111222' 
TCOON,ioos:station:TCOON:524:1,2017-04-01T07:18:00Z,29.8672,-93.9310,0.0,3.3,136.0,6.1,'1111122,1111122,1111122' 
TCOON,ioos:station:TCOON:524:1,2017-04-01T07:24:00Z,29.8672,-93.9310,0.0,4.2,137.0,6.7,'11111222,11111222,11111222' 
TCOON,ioos:station:TCOON:524:1,2017-04-01T07:30:00Z,29.8672,-93.9310,0.0,4.3,139.0,6.5,'11111222,11111222,11111222' 
TCOON,ioos:station:TCOON:524:1,2017-04-01T07:36:00Z,29.8672,-93.9310,0.0,4.6,135.0,7.1,'11111222,11111222,11111222' 
TCOON,ioos:station:TCOON:524:1,2017-04-01T07:42:00Z,29.8672,-93.9310,0.0,3.9,140.0,6.3,'11111222,11111222,11111222' 
TCOON,ioos:station:TCOON:524:1,2017-04-01T07:48:00Z,29.8672,-93.9310,0.0,4.7,143.0,6.6,'11111222,11111222,11111222' 
TCOON,ioos:station:TCOON:524:1,2017-04-01T07:54:00Z,29.8672,-93.9310,0.0,4.1,141.0,7.7,'11111222,11111222,11111222' 
TCOON,ioos:station:TCOON:524:1,2017-04-01T08:00:00Z,29.8672,-93.9310,0.0,4.7,147.0,6.6,'11111222,11111222,11111222' 
TCOON,ioos:station:TCOON:524:1,2017-04-01T08:06:00Z,29.8672,-93.9310,0.0,4.5,143.0,6.5,'11111222,11111222,11111222' 
TCOON,ioos:station:TCOON:524:1,2017-04-01T08:12:00Z,29.8672,-93.9310,0.0,3.8,142.0,6.0,'11111222,11111222,11111222' 
TCOON,ioos:station:TCOON:524:1,2017-04-01T08:18:00Z,29.8672,-93.9310,0.0,3.2,142.0,6.3,'11111222,11111222,11111222' 
TCOON,ioos:station:TCOON:524:1,2017-04-01T08:24:00Z,29.8672,-93.9310,0.0,4.3,138.0,6.7,'11111222,11111222,11111222' 
TCOON,ioos:station:TCOON:524:1,2017-04-01T08:30:00Z,29.8672,-93.9310,0.0,4.3,138.0,6.7,'1111122,1111122,1111122' 
TCOON,ioos:station:TCOON:524:1,2017-04-01T08:36:00Z,29.8672,-93.9310,0.0,4.1,144.0,6.8,'11111222,11111222,11111222' 
TCOON,ioos:station:TCOON:524:1,2017-04-01T08:42:00Z,29.8672,-93.9310,0.0,4.0,141.0,6.9,'11111222,11111222,11111222' 
TCOON,ioos:station:TCOON:524:1,2017-04-01T08:48:00Z,29.8672,-93.9310,0.0,3.7,136.0,6.5,'11111222,11111222,11111222' 
TCOON,ioos:station:TCOON:524:1,2017-04-01T08:54:00Z,29.8672,-93.9310,0.0,4.2,136.0,6.0,'11111222,11111222,11111222' 
TCOON,ioos:station:TCOON:524:1,2017-04-01T09:00:00Z,29.8672,-93.9310,0.0,3.8,132.0,5.8,'11111222,11111222,11111222' 
TCOON,ioos:station:TCOON:524:1,2017-04-01T09:06:00Z,29.8672,-93.9310,0.0,3.9,133.0,6.3,'11111222,11111222,11111222' 
TCOON,ioos:station:TCOON:524:1,2017-04-01T09:12:00Z,29.8672,-93.9310,0.0,3.2,130.0,6.5,'11111222,11111222,11111222' 
TCOON,ioos:station:TCOON:524:1,2017-04-01T09:18:00Z,29.8672,-93.9310,0.0,3.2,130.0,6.5,'1111122,1111122,1111122' 
TCOON,ioos:station:TCOON:524:1,2017-04-01T09:24:00Z,29.8672,-93.9310,0.0,2.9,126.0,7.5,'11111222,11111222,11111222' 
TCOON,ioos:station:TCOON:524:1,2017-04-01T09:30:00Z,29.8672,-93.9310,0.0,3.5,129.0,5.9,'11111222,11111222,11111222' 
TCOON,ioos:station:TCOON:524:1,2017-04-01T09:36:00Z,29.8672,-93.9310,0.0,3.8,132.0,5.7,'11111222,11111222,11111222' 
TCOON,ioos:station:TCOON:524:1,2017-04-01T09:42:00Z,29.8672,-93.9310,0.0,3.3,130.0,5.3,'11111222,11111222,11111222' 
TCOON,ioos:station:TCOON:524:1,2017-04-01T10:06:00Z,29.8672,-93.9310,0.0,3.9,139.0,5.4,'11111222,11111222,11111222' 
TCOON,ioos:station:TCOON:524:1,2017-04-01T10:12:00Z,29.8672,-93.9310,0.0,3.1,125.0,5.9,'11111222,11111222,11111222' 
TCOON,ioos:station:TCOON:524:1,2017-04-01T10:18:00Z,29.8672,-93.9310,0.0,3.1,125.0,5.9,'1111122,1111122,1111122' 
TCOON,ioos:station:TCOON:524:1,2017-04-01T10:24:00Z,29.8672,-93.9310,0.0,3.0,127.0,5.5,'11111222,11111222,11111222' 
TCOON,ioos:station:TCOON:524:1,2017-04-01T10:30:00Z,29.8672,-93.9310,0.0,4.1,125.0,6.4,'11111222,11111222,11111222' 
TCOON,ioos:station:TCOON:524:1,2017-04-01T10:36:00Z,29.8672,-93.9310,0.0,2.5,130.0,5.3,'11111222,11111222,11111222' 
TCOON,ioos:station:TCOON:524:1,2017-04-01T10:42:00Z,29.8672,-93.9310,0.0,3.7,126.0,5.6,'11111222,11111222,11111222' 
TCOON,ioos:station:TCOON:524:1,2017-04-01T10:48:00Z,29.8672,-93.9310,0.0,3.1,124.0,5.5,'11111222,11111222,11111222' 
TCOON,ioos:station:TCOON:524:1,2017-04-01T10:54:00Z,29.8672,-93.9310,0.0,2.8,128.0,5.4,'11111222,11111222,11111222' 
TCOON,ioos:station:TCOON:524:1,2017-04-01T11:00:00Z,29.8672,-93.9310,0.0,3.5,126.0,5.1,'11111222,11111222,11111222' 
TCOON,ioos:station:TCOON:524:1,2017-04-01T11:06:00Z,29.8672,-93.9310,0.0,2.7,130.0,4.8,'11111222,11111222,11111222' 
TCOON,ioos:station:TCOON:524:1,2017-04-01T11:12:00Z,29.8672,-93.9310,0.0,3.2,133.0,5.6,'11111222,11111222,11111222' 
TCOON,ioos:station:TCOON:524:1,2017-04-01T11:18:00Z,29.8672,-93.9310,0.0,3.2,133.0,5.6,'1111122,1111122,1111122' 
TCOON,ioos:station:TCOON:524:1,2017-04-01T11:24:00Z,29.8672,-93.9310,0.0,3.7,136.0,5.3,'11111222,11111222,11111222' 
TCOON,ioos:station:TCOON:524:1,2017-04-01T11:30:00Z,29.8672,-93.9310,0.0,3.0,134.0,5.6,'11111222,11111222,11111222' 
TCOON,ioos:station:TCOON:524:1,2017-04-01T11:36:00Z,29.8672,-93.9310,0.0,3.1,139.0,5.3,'11111222,11111222,11111222' 
TCOON,ioos:station:TCOON:524:1,2017-04-01T11:42:00Z,29.8672,-93.9310,0.0,3.9,142.0,5.5,'11111222,11111222,11111222' 
TCOON,ioos:station:TCOON:524:1,2017-04-01T11:48:00Z,29.8672,-93.9310,0.0,4.0,140.0,6.1,'11111222,11111222,11111222' 
TCOON,ioos:station:TCOON:524:1,2017-04-01T11:54:00Z,29.8672,-93.9310,0.0,3.4,140.0,6.3,'11111222,11111222,11111222' 
TCOON,ioos:station:TCOON:524:1,2017-04-01T12:00:00Z,29.8672,-93.9310,0.0,3.4,139.0,4.8,'11111222,11111222,11111222' 
TCOON,ioos:station:TCOON:524:1,2017-04-01T12:06:00Z,29.8672,-93.9310,0.0,3.7,138.0,5.6,'11111222,11111222,11111222' 
TCOON,ioos:station:TCOON:524:1,2017-04-01T12:12:00Z,29.8672,-93.9310,0.0,3.4,130.0,5.5,'11111222,11111222,11111222' 
TCOON,ioos:station:TCOON:524:1,2017-04-01T12:18:00Z,29.8672,-93.9310,0.0,3.4,130.0,5.5,'1111122,1111122,1111122' 
TCOON,ioos:station:TCOON:524:1,2017-04-01T12:24:00Z,29.8672,-93.9310,0.0,4.0,136.0,6.0,'11111222,11111222,11111222' 
TCOON,ioos:station:TCOON:524:1,2017-04-01T12:30:00Z,29.8672,-93.9310,0.0,3.9,130.0,5.5,'11111222,11111222,11111222' 
TCOON,ioos:station:TCOON:524:1,2017-04-01T12:36:00Z,29.8672,-93.9310,0.0,3.5,136.0,5.7,'11111222,11111222,11111222' 
TCOON,ioos:station:TCOON:524:1,2017-04-01T12:42:00Z,29.8672,-93.9310,0.0,3.6,137.0,6.4,'11111222,11111222,11111222' 
TCOON,ioos:station:TCOON:524:1,2017-04-01T12:48:00Z,29.8672,-93.9310,0.0,3.7,132.0,5.8,'11111222,11111222,11111222' 
TCOON,ioos:station:TCOON:524:1,2017-04-01T12:54:00Z,29.8672,-93.9310,0.0,3.5,135.0,5.9,'11111222,11111222,11111222' 
TCOON,ioos:station:TCOON:524:1,2017-04-01T13:00:00Z,29.8672,-93.9310,0.0,3.4,133.0,5.4,'11111222,11111222,11111222' 
TCOON,ioos:station:TCOON:524:1,2017-04-01T13:06:00Z,29.8672,-93.9310,0.0,4.3,137.0,6.1,'11111222,11111222,11111222' 
TCOON,ioos:station:TCOON:524:1,2017-04-01T13:12:00Z,29.8672,-93.9310,0.0,3.8,133.0,5.4,'11111222,11111222,11111222' 
TCOON,ioos:station:TCOON:524:1,2017-04-01T13:18:00Z,29.8672,-93.9310,0.0,3.8,133.0,5.4,'1111122,1111122,1111122' 
TCOON,ioos:station:TCOON:524:1,2017-04-01T13:24:00Z,29.8672,-93.9310,0.0,4.4,135.0,5.8,'11111222,11111222,11111222' 
TCOON,ioos:station:TCOON:524:1,2017-04-01T13:30:00Z,29.8672,-93.9310,0.0,4.0,133.0,6.2,'11111222,11111222,11111222' 
TCOON,ioos:station:TCOON:524:1,2017-04-01T13:36:00Z,29.8672,-93.9310,0.0,4.1,141.0,6.1,'11111222,11111222,11111222' 
TCOON,ioos:station:TCOON:524:1,2017-04-01T13:42:00Z,29.8672,-93.9310,0.0,3.3,134.0,7.3,'11111222,11111222,11111222' 
TCOON,ioos:station:TCOON:524:1,2017-04-01T13:48:00Z,29.8672,-93.9310,0.0,4.5,132.0,7.3,'11111222,11111222,11111222' 
TCOON,ioos:station:TCOON:524:1,2017-04-01T13:54:00Z,29.8672,-93.9310,0.0,4.1,136.0,7.6,'11111222,11111222,11111222' 
TCOON,ioos:station:TCOON:524:1,2017-04-01T14:00:00Z,29.8672,-93.9310,0.0,4.5,125.0,7.2,'11111222,11111222,11111222' 
TCOON,ioos:station:TCOON:524:1,2017-04-01T14:06:00Z,29.8672,-93.9310,0.0,4.1,126.0,6.3,'11111222,11111222,11111222' 
TCOON,ioos:station:TCOON:524:1,2017-04-01T14:12:00Z,29.8672,-93.9310,0.0,4.7,130.0,6.9,'11111222,11111222,11111222' 
TCOON,ioos:station:TCOON:524:1,2017-04-01T14:18:00Z,29.8672,-93.9310,0.0,4.7,130.0,6.9,'1111122,1111122,1111122' 
TCOON,ioos:station:TCOON:524:1,2017-04-01T14:24:00Z,29.8672,-93.9310,0.0,5.2,124.0,7.8,'11111222,11111222,11111222' 
TCOON,ioos:station:TCOON:524:1,2017-04-01T14:30:00Z,29.8672,-93.9310,0.0,4.7,124.0,8.7,'11111222,11111222,11111222' 
TCOON,ioos:station:TCOON:524:1,2017-04-01T14:36:00Z,29.8672,-93.9310,0.0,4.5,127.0,7.8,'11111222,11111222,11111222' 
TCOON,ioos:station:TCOON:524:1,2017-04-01T14:42:00Z,29.8672,-93.9310,0.0,5.5,125.0,7.7,'11111222,11111222,11111222' 
TCOON,ioos:station:TCOON:524:1,2017-04-01T14:48:00Z,29.8672,-93.9310,0.0,4.9,125.0,7.2,'11111222,11111222,11111222' 
TCOON,ioos:station:TCOON:524:1,2017-04-01T14:54:00Z,29.8672,-93.9310,0.0,6.0,120.0,8.0,'11111222,11111222,11111222' 
TCOON,ioos:station:TCOON:524:1,2017-04-01T15:00:00Z,29.8672,-93.9310,0.0,5.4,128.0,8.6,'11111222,11111222,11111222' 
TCOON,ioos:station:TCOON:524:1,2017-04-01T15:06:00Z,29.8672,-93.9310,0.0,4.1,127.0,6.5,'11111222,11111222,11111222' 
TCOON,ioos:station:TCOON:524:1,2017-04-01T15:12:00Z,29.8672,-93.9310,0.0,4.1,128.0,7.4,'11111222,11111222,11111222' 
TCOON,ioos:station:TCOON:524:1,2017-04-01T15:18:00Z,29.8672,-93.9310,0.0,4.1,128.0,7.4,'1111122,1111122,1111122' 
TCOON,ioos:station:TCOON:524:1,2017-04-01T15:24:00Z,29.8672,-93.9310,0.0,4.5,126.0,7.1,'11111222,11111222,11111222' 
TCOON,ioos:station:TCOON:524:1,2017-04-01T15:30:00Z,29.8672,-93.9310,0.0,5.2,119.0,7.6,'11111222,11111222,11111222' 
TCOON,ioos:station:TCOON:524:1,2017-04-01T15:36:00Z,29.8672,-93.9310,0.0,4.7,126.0,8.0,'11111222,11111222,11111222' 
TCOON,ioos:station:TCOON:524:1,2017-04-01T15:42:00Z,29.8672,-93.9310,0.0,4.0,124.0,7.2,'11111222,11111222,11111222' 
TCOON,ioos:station:TCOON:524:1,2017-04-01T15:48:00Z,29.8672,-93.9310,0.0,4.2,129.0,6.8,'11111222,11111222,11111222' 
TCOON,ioos:station:TCOON:524:1,2017-04-01T15:54:00Z,29.8672,-93.9310,0.0,4.6,122.0,7.6,'11111222,11111222,11111222' 
TCOON,ioos:station:TCOON:524:1,2017-04-01T16:00:00Z,29.8672,-93.9310,0.0,3.2,126.0,7.1,'11111222,11111222,11111222' 
TCOON,ioos:station:TCOON:524:1,2017-04-01T16:06:00Z,29.8672,-93.9310,0.0,5.0,132.0,7.8,'11111222,11111222,11111222' 
TCOON,ioos:station:TCOON:524:1,2017-04-01T16:12:00Z,29.8672,-93.9310,0.0,5.3,132.0,8.1,'11111222,11111222,11111222' 
TCOON,ioos:station:TCOON:524:1,2017-04-01T16:18:00Z,29.8672,-93.9310,0.0,5.3,132.0,8.1,'1111122,1111122,1111122' 
TCOON,ioos:station:TCOON:524:1,2017-04-01T16:24:00Z,29.8672,-93.9310,0.0,6.3,135.0,8.6,'11111222,11111222,11111222' 
TCOON,ioos:station:TCOON:524:1,2017-04-01T16:30:00Z,29.8672,-93.9310,0.0,5.7,132.0,9.8,'11111222,11111222,11111222' 
TCOON,ioos:station:TCOON:524:1,2017-04-01T16:36:00Z,29.8672,-93.9310,0.0,5.8,134.0,9.2,'11111222,11111222,11111222' 
TCOON,ioos:station:TCOON:524:1,2017-04-01T16:42:00Z,29.8672,-93.9310,0.0,5.0,131.0,8.6,'11111222,11111222,11111222' 
TCOON,ioos:station:TCOON:524:1,2017-04-01T16:48:00Z,29.8672,-93.9310,0.0,5.8,131.0,8.6,'11111222,11111222,11111222' 
TCOON,ioos:station:TCOON:524:1,2017-04-01T16:54:00Z,29.8672,-93.9310,0.0,4.5,127.0,8.9,'11111222,11111222,11111222' 
TCOON,ioos:station:TCOON:524:1,2017-04-01T17:00:00Z,29.8672,-93.9310,0.0,6.1,135.0,8.9,'11111222,11111222,11111222' 
TCOON,ioos:station:TCOON:524:1,2017-04-01T17:06:00Z,29.8672,-93.9310,0.0,4.9,130.0,7.1,'11111222,11111222,11111222' 
TCOON,ioos:station:TCOON:524:1,2017-04-01T17:12:00Z,29.8672,-93.9310,0.0,5.7,135.0,8.8,'11111222,11111222,11111222' 
TCOON,ioos:station:TCOON:524:1,2017-04-01T17:18:00Z,29.8672,-93.9310,0.0,5.7,135.0,8.8,'1111122,1111122,1111122' 
TCOON,ioos:station:TCOON:524:1,2017-04-01T17:24:00Z,29.8672,-93.9310,0.0,4.5,129.0,8.0,'11111222,11111222,11111222' 
TCOON,ioos:station:TCOON:524:1,2017-04-01T17:30:00Z,29.8672,-93.9310,0.0,4.1,125.0,7.6,'11111222,11111222,11111222' 
TCOON,ioos:station:TCOON:524:1,2017-04-01T17:36:00Z,29.8672,-93.9310,0.0,4.6,125.0,7.1,'11111222,11111222,11111222' 
TCOON,ioos:station:TCOON:524:1,2017-04-01T17:42:00Z,29.8672,-93.9310,0.0,4.7,131.0,8.5,'11111222,11111222,11111222' 
TCOON,ioos:station:TCOON:524:1,2017-04-01T17:48:00Z,29.8672,-93.9310,0.0,5.4,132.0,8.1,'11111222,11111222,11111222' 
TCOON,ioos:station:TCOON:524:1,2017-04-01T17:54:00Z,29.8672,-93.9310,0.0,4.3,126.0,7.8,'11111222,11111222,11111222' 
TCOON,ioos:station:TCOON:524:1,2017-04-01T18:00:00Z,29.8672,-93.9310,0.0,4.4,132.0,7.5,'11111222,11111222,11111222' 
TCOON,ioos:station:TCOON:524:1,2017-04-01T18:06:00Z,29.8672,-93.9310,0.0,3.9,129.0,8.1,'11111222,11111222,11111222' 
TCOON,ioos:station:TCOON:524:1,2017-04-01T18:12:00Z,29.8672,-93.9310,0.0,4.9,132.0,7.3,'11111222,11111222,11111222' 
TCOON,ioos:station:TCOON:524:1,2017-04-01T18:18:00Z,29.8672,-93.9310,0.0,4.0,127.0,7.5,'11111222,11111222,11111222' 
TCOON,ioos:station:TCOON:524:1,2017-04-01T18:24:00Z,29.8672,-93.9310,0.0,4.0,127.0,7.5,'1111122,1111122,1111122' 
TCOON,ioos:station:TCOON:524:1,2017-04-01T18:30:00Z,29.8672,-93.9310,0.0,4.3,128.0,8.0,'11111222,11111222,11111222' 
TCOON,ioos:station:TCOON:524:1,2017-04-01T18:36:00Z,29.8672,-93.9310,0.0,4.7,132.0,8.1,'11111222,11111222,11111222' 
TCOON,ioos:station:TCOON:524:1,2017-04-01T18:42:00Z,29.8672,-93.9310,0.0,5.8,136.0,8.0,'11111222,11111222,11111222' 
TCOON,ioos:station:TCOON:524:1,2017-04-01T18:48:00Z,29.8672,-93.9310,0.0,4.6,129.0,8.5,'11111222,11111222,11111222' 
TCOON,ioos:station:TCOON:524:1,2017-04-01T18:54:00Z,29.8672,-93.9310,0.0,5.8,137.0,9.3,'11111222,11111222,11111222' 
TCOON,ioos:station:TCOON:524:1,2017-04-01T19:00:00Z,29.8672,-93.9310,0.0,4.6,129.0,7.3,'11111222,11111222,11111222' 
TCOON,ioos:station:TCOON:524:1,2017-04-01T19:06:00Z,29.8672,-93.9310,0.0,4.7,132.0,7.3,'11111222,11111222,11111222' 
TCOON,ioos:station:TCOON:524:1,2017-04-01T19:12:00Z,29.8672,-93.9310,0.0,3.9,128.0,7.4,'11111222,11111222,11111222' 
TCOON,ioos:station:TCOON:524:1,2017-04-01T19:18:00Z,29.8672,-93.9310,0.0,3.9,128.0,7.4,'1111122,1111122,1111122' 
TCOON,ioos:station:TCOON:524:1,2017-04-01T19:24:00Z,29.8672,-93.9310,0.0,5.3,122.0,8.6,'11111222,11111222,11111222' 
TCOON,ioos:station:TCOON:524:1,2017-04-01T19:30:00Z,29.8672,-93.9310,0.0,5.0,122.0,7.9,'11111222,11111222,11111222' 
TCOON,ioos:station:TCOON:524:1,2017-04-01T19:36:00Z,29.8672,-93.9310,0.0,5.0,129.0,8.9,'11111222,11111222,11111222' 
TCOON,ioos:station:TCOON:524:1,2017-04-01T19:42:00Z,29.8672,-93.9310,0.0,6.2,117.0,8.9,'11111222,11111222,11111222' 
TCOON,ioos:station:TCOON:524:1,2017-04-01T19:48:00Z,29.8672,-93.9310,0.0,6.7,116.0,9.4,'11111222,11111222,11111222' 
TCOON,ioos:station:TCOON:524:1,2017-04-01T19:54:00Z,29.8672,-93.9310,0.0,5.1,114.0,8.7,'11111222,11111222,11111222' 
TCOON,ioos:station:TCOON:524:1,2017-04-01T20:00:00Z,29.8672,-93.9310,0.0,4.8,120.0,8.4,'11111222,11111222,11111222' 
TCOON,ioos:station:TCOON:524:1,2017-04-01T20:06:00Z,29.8672,-93.9310,0.0,5.3,117.0,7.8,'11111222,11111222,11111222' 
TCOON,ioos:station:TCOON:524:1,2017-04-01T20:12:00Z,29.8672,-93.9310,0.0,5.3,118.0,8.6,'11111222,11111222,11111222' 
TCOON,ioos:station:TCOON:524:1,2017-04-01T20:18:00Z,29.8672,-93.9310,0.0,5.3,118.0,8.6,'1111122,1111122,1111122' 
TCOON,ioos:station:TCOON:524:1,2017-04-01T20:24:00Z,29.8672,-93.9310,0.0,5.2,121.0,8.0,'11111222,11111222,11111222' 
TCOON,ioos:station:TCOON:524:1,2017-04-01T20:30:00Z,29.8672,-93.9310,0.0,6.3,118.0,8.4,'11111222,11111222,11111222' 
TCOON,ioos:station:TCOON:524:1,2017-04-01T20:36:00Z,29.8672,-93.9310,0.0,5.7,123.0,7.9,'11111222,11111222,11111222' 